Location: Mat�lon
(46.2791°N, 7.1028°E)
Time: 07:16:53
(UTC+00:00)

Envisat - Visible Passes

Search period start: 18 September 2021 00:00
Search period end: 28 September 2021 00:00
Orbit: 764 x 766 km, 98.2° (Epoch: 17 September)

Date Brightness Start Highest point End Pass type
(mag) Time Alt. Az. Time Alt. Az. Time Alt. Az.
18 Sep 6.0 03:21:43 10° ENE 03:24:13 14° E 03:26:43 10° ESE visible
19 Sep 4.2 04:22:03 10° NNE 04:26:59 48° E 04:31:52 10° S visible
20 Sep 5.5 03:45:52 10° NE 03:49:52 23° E 03:53:51 10° SE visible
21 Sep 6.3 03:11:35 10° ENE 03:12:33 10° E 03:13:31 10° E visible
21 Sep 3.2 04:47:15 10° NNE 04:52:23 81° ESE 04:57:28 10° S visible
22 Sep 4.6 04:10:40 10° NNE 04:15:24 38° E 04:20:07 10° SSE visible
23 Sep 5.8 03:34:44 10° NE 03:38:14 18° E 03:41:43 10° SE visible
24 Sep 3.5 04:35:47 10° NNE 04:40:51 65° ESE 04:45:53 10° S visible
25 Sep 5.0 03:59:20 10° NNE 04:03:49 31° E 04:08:17 10° SSE visible
26 Sep 6.0 03:23:47 10° NE 03:26:35 15° E 03:29:23 10° ESE visible
27 Sep 4.0 04:24:20 10° NNE 04:29:18 51° E 04:34:15 10° S visible
